Regional Weather Roundup
Issued by NWS

Home | Current Version | Previous Version | Graphics & Text | Print | Product List | Glossary On
Versions: 1 2 3 4 5 6 7 8 9 10 11 12 13 14 15 16 17 18 19 20 21 22 23 24 25 26 27 28 29 30 31 32 33 34 35 36 37 38 39 40 41 42 43 44 45 46 47 48 49 50
000
ASUS43 KLOT 220406
RWRIL

ILLINOIS REGIONAL WEATHER ROUNDUP
NATIONAL WEATHER SERVICE CHICAGO/ROMEOVILLE IL
1100 PM CDT THU AUG 21 2014

NOTE: "FAIR" INDICATES FEW OR NO CLOUDS BELOW 12,000 FEET WITH NO
SIGNIFICANT WEATHER AND/OR OBSTRUCTIONS TO VISIBILITY.

* THESE STATIONS ARE NOT UNDER NWS QUALITY CONTROL. THEY ALSO MAY NOT
  REPORT WEATHER SUCH AS PRECIPITATION OR FOG.

ILZ001-002-007-009-015-016-024-220500-
NORTHWEST ILLINOIS

CITY           SKY/WX    TMP DP  RH WIND       PRES   REMARKS
MOLINE         PTCLDY    76  73  91 CALM      29.89S
STERLING*      MOCLDY    75  73  94 E5        29.93S
SAVANNA*       CLOUDY    76  72  89 E5        29.92R
$$

ILZ003-004-008-010-011-017-018-220500-
NORTH CENTRAL ILLINOIS

CITY           SKY/WX    TMP DP  RH WIND       PRES   REMARKS
ROCKFORD       CLOUDY    75  72  90 NE3       29.96R
FREEPORT*      CLOUDY    73  72  96 E6        29.96S FOG
ROCHELLE*      CLOUDY    74  73  95 CALM      29.94S FOG
DE KALB*       CLOUDY    72  72  98 E5        29.96S FOG
PERU*          RAIN      78  74  88 S6        29.93S HX  80
$$

ILZ005-006-012>014-019>023-220500-
NORTHEAST ILLINOIS

CITY           SKY/WX    TMP DP  RH WIND       PRES   REMARKS
CHICAGO-OHARE  LGT RAIN  75  70  84 S3        29.95R
CHICAGO-MIDWAY CLOUDY    77  73  87 SE3       29.95R
AURORA         MOCLDY    75  72  90 E3        29.95R FOG
LANSING*       CLOUDY    73  71  93 CALM      29.96R
JOLIET*        CLOUDY    73  70  90 CALM      29.96R
WAUKEGAN       FOG       71  70  96 CALM      29.95R VSB 1/4
DUPAGE AIRPORT CLOUDY    75  73  93 E3        29.95R
KANKAKEE*      CLOUDY    74  71  92 SE5       29.95R
WHEELING       CLOUDY    75  72  90 CALM      29.97R FOG
MORRIS*        LGT RAIN  75  74  96 NE3       29.94R
ROMEOVILLE*    CLOUDY    74  72  96 CALM      29.96R
NORTHERLY ISL    N/A     75  70  84 SW3         N/A
$$

LMZ740>746-220500-
SOUTHERN LAKE MICHIGAN

STATION/POSITION SKY/WX   TEMP    WIND        PRES    VSBY  WAVE
                          AIR SEA DIR/SP/G                  HT/PER
                          (F)     (DEG/KT/KT) (MB)    (MI)  (FT/S)
SOUTHERN BUOY              69 68   80/  6/  6 1014.3R         0
WAUKEGAN HARBOR            71        CALM       N/A
HARRISON CRIB              74     200/  9/  9   N/A
BURNHAM HARBOR             75     230/  2/  5   N/A
CALUMET HARBOR             74     200/  1/  2 1013.1R
BURNS HARBOR               74     180/  5/  8   N/A
MICHIGAN CITY              73     130/  9/ 12   N/A
MICHIGAN CITY 6N           73 71  160/  4/  4   N/A           0
ST. JOSEPH                 72 71  130/  6/  8   N/A           0
$$

ILZ025>027-034>036-040-047-049-050-058-095>099-220500-
WEST-CENTRAL ILLINOIS

CITY           SKY/WX    TMP DP  RH WIND       PRES   REMARKS
QUINCY         PTCLDY    81  75  82 S8        29.92R HX  87
GALESBURG*     PTCLDY    78  76  93 S3        29.92R HX  80
MACOMB*        MOCLDY    76  75  96 S5        29.94R
JACKSONVILLE*  CLEAR     83  77  81 S8        29.94R HX  91
PITTSFIELD*    CLEAR     81  75  83 S6        29.94R HX  86
$$

ILZ028>032-037-038-041>044-048-051>054-059>061-220500-
CENTRAL ILLINOIS

CITY           SKY/WX    TMP DP  RH WIND       PRES   REMARKS
PONTIAC        CLOUDY    81  79  94 S5        29.94R HX  89
DECATUR        CLEAR     80  75  84 S12       29.96R HX  85
PEORIA         MOCLDY    83  76  79 S7        29.92R HX  91
LACON*         CLOUDY    80  75  86 CALM      29.91R HX  85
LINCOLN*       PTCLDY    81  76  86 S7        29.91R HX  87
SPRINGFIELD    CLEAR     82  77  84 S9        29.94R HX  90
TAYLORVILLE    CLEAR     77  73  88 S9        29.96R
$$

ILZ033-039-045-046-055>057-062-063-220500-
EAST-CENTRAL ILLINOIS

CITY           SKY/WX    TMP DP  RH WIND       PRES   REMARKS
CHAMPAIGN      PTCLDY    77  75  93 S8        29.96S
DANVILLE*      MOCLDY    78  75  92 S5        29.95R HX  80
RANTOUL*       MOCLDY    79  74  86 S3        29.97R HX  82
MATTOON        CLEAR     79  74  84 S9        29.98R HX  82
PARIS*         PTCLDY    78  77  96 S7        29.98S HX  81
$$

ILZ079-100>102-220500-
SOUTHWEST ILLINOIS

CITY           SKY/WX    TMP DP  RH WIND       PRES   REMARKS
ALTON          CLEAR     80  79  96 S6        29.97R HX  89
BELLEVILLE     CLEAR     79  77  92 VRB1      29.97R HX  84
CAHOKIA*       PTCLDY    81  76  84 CALM      29.96R HX  87
SPARTA*        CLEAR     81  75  82 S8        30.00R HX  87
$$

ILZ064>066-069>071-074>076-080>082-084>086-088>090-092>094-220500-
SOUTH-CENTRAL ILLINOIS

CITY           SKY/WX    TMP DP  RH WIND       PRES   REMARKS
CARBONDALE     CLEAR     82  73  74 SW10      30.01R HX  87
CAIRO*         MOCLDY    82  74  78 S6        30.02S HX  88
MARION         CLEAR     81  75  83 S9        30.02R HX  86
MT. VERNON     CLEAR     79  72  78 S5        30.02R HX  82
CENTRALIA*     CLEAR     78  73  85 S9        29.99S HX  81
SALEM*         CLEAR     82  77  85 S7        30.00R HX  89
METROPOLIS*    PTCLDY    81  70  71 S5        30.02S HX  84
$$

ILZ067-068-072-073-078-083-087-091-220500-
SOUTHEAST ILLINOIS

CITY           SKY/WX    TMP DP  RH WIND       PRES   REMARKS
LAWRENCEVILLE  CLEAR     75  73  93 S5        30.01R
FLORA*         CLEAR     77  74  91 S7        30.01R
FAIRFIELD*     CLEAR     79  75  89 S3        30.01R HX  82
HARRISBURG*    CLEAR     80  74  84 CALM      30.03R HX  84
ROBINSON*      PTCLDY    76  75  95 SW5       30.01S
CARMI*         CLEAR     75  75 100 S3        30.01R
$$

ABBREVIATIONS USED IN REMARKS
   TC - TEMPERATURE IN CELSIUS
  WCI - WIND CHILL INDEX
   HX - HEAT INDEX
  VSB - VISIBILITY
$$




USA.gov is the U.S. government's official web portal to all federal, state and local government web resources and services.